Regional Weather Roundup
Issued by NWS

Home | Current Version | Previous Version | Text Only | Print | Product List | Glossary Off
Versions: 1 2 3 4 5 6 7 8 9 10 11 12 13 14 15 16 17 18 19 20 21 22 23 24 25 26 27 28 29 30 31 32 33 34 35 36 37 38 39 40 41 42 43 44 45 46 47 48 49 50

000
ASUS43 KLMK 231402
RWRKY
KENTUCKY REGIONAL WEATHER ROUNDUP
NATIONAL WEATHER SERVICE LOUISVILLE KY
900 AM EST FRI FEB 23 2018

NOTE "FAIR" INDICATES FEW OR NO CLOUDS BELOW 12,000 FEET
WITH NO SIGNIFICANT WEATHER AND/OR OBSTRUCTIONS TO VISIBILITY.

KYZ001>023-026-027-061>063-070>075-231500-
WESTERN AND SOUTH CENTRAL KENTUCKY

CITY           SKY/WX    TMP DP  RH WIND       PRES   REMARKS
PADUCAH        LGT RAIN  58  56  93 W16       30.27R
HENDERSON      LGT RAIN  60  59  96 SW12      30.23R
OWENSBORO      RAIN      60  59  96 S12       30.24R FOG
HOPKINSVILLE   CLOUDY    61  61 100 NW9       30.28R
BOWLING GREEN  CLOUDY    62  61  96 S6        30.28R
GLASGOW        NOT AVBL
$$

KYZ024-025-028>034-038-045-046-053-231500-
NORTH CENTRAL KENTUCKY

CITY           SKY/WX    TMP DP  RH WIND       PRES   REMARKS
LOUISVILLE/SDF RAIN      62  60  93 S10G20    30.23R FOG
LOUISVILLE/LOU RAIN      59  59 100 S7        30.25R FOG
FORT KNOX      LGT RAIN  61  61 100 SW15      30.27R
$$

KYZ035>037-039>044-047>052-055>060-089>105-231500-
NORTHEAST KENTUCKY

CITY           SKY/WX    TMP DP  RH WIND       PRES   REMARKS
LEXINGTON      LGT RAIN  63  59  87 S14       30.26F
COVINGTON      LGT RAIN  56  55  97 S10       30.21S FOG
FRANKFORT      CLOUDY    62  58  86 SW13      30.25R
$$

KYZ054-064>069-076>088-106>120-231500-
SOUTHEAST KENTUCKY

CITY           SKY/WX    TMP DP  RH WIND       PRES   REMARKS
JACKSON        FAIR      66  59  78 S5        30.32S
LONDON         CLOUDY    64  60  87 W3        30.34R
SOMERSET       NOT AVBL
MIDDLESBORO    FAIR      66  59  78 SW9G18    30.36S
MONTICELLO     NOT AVBL
$$





USA.gov is the U.S. government's official web portal to all federal, state and local government web resources and services.